Powrót do katalogu

AMC-21

AktywnyŁącznośćGEO
NORAD 33275·PAYLOAD·🇱🇺 Luxembourg

Wystrzelony Aug 14, 2008 z Guiana Space Centre

Loading…

TLE

ŚwieżeSource: Space-Track

Epoka: Sep 14, 2026, 14:18 UTC

1 33275U 08038B   26257.59607443 -.00000122  00000-0  00000-0 0  9995
2 33275   3.1778  78.9078 0009870  21.9411 213.1170  0.99011873 66352

Śledź AMC-21 w czasie rzeczywistym z AllMySat

Download on the App Store